SCP
-0 -0 -0 -0 -0 -0 -0 -0 0 0 0 0 0 0 0 0 0 0 0 0 0 0 0 0 0 -0 -0 0 0 0 0 0 0 0 0 0 0 0 0 0 0 0 0
-0 -0 -0 -0 -0 -0 -0 -0 0 0 0 0 0 0 0 0 0 0 0 0 0 0 0 0 0 0 0 0 0 0 0 0 0 0 0 0 0 0 0 0 0 0 0
-0 -0 -0 -0 -0 -0 0 0 0 0 0 0 0 0 0 0 0 0 0 0 0 0 0 0 0 0 0 0 0 0 0 0 0 0 -0 0 0 0 0 0 0 0 0
-0 0 0 -0 -0 -0 -0 0 0 0 0 0 0 0 0 0 0 0 0 0 0 0 0 0 0 0 0 0 0 0 0 0 0 0 0 0 0 0 0 0 0 0 0
-0 0 -0 -0 -0 -0 0 0 0 0 0 0 0 0 0 0 0 0 0 0 0 0 0 0 0 0 0 0 0 0 0 0 0 0 0 0 0 0 0 0 0 0 0
0 0 0 -0 -0 -0 0 0 0 0 0 0 0 0 0 0 0 0 0 0 0 0 0 0 0 0 0 0 0 0 0 0 0 0 0 0 0 0 0 0 0 0 0
0 0 -0 0 0 0 0 0 0 0 0 1 0 0 0 1 0 0 0 0 0 0 0 0 0 0 0 0 0 0 0 0 0 0 0 0 0 0 0 0 0 0 0
0 0 0 0 0 0 1 1 1 1 1 1 0 0 0 0 0 0 0 0 0 0 0 0 0 0 0 0 0 0 0 0 0 0 0 0 0 0 0 0 0 0 0
0 -0 0 0 0 0 1 1 1 1 1 1 1 0 0 0 0 0 0 0 0 0 0 0 0 0 0 0 0 0 0 0 0 0 0 0 0 0 0 0 0 0 0
0 0 0 0 0 0 1 0 0 1 1 0 0 0 0 0 0 0 0 0 0 0 0 0 0 0 0 0 0 0 0 0 0 0 0 0 0 -0 0 0 0 0 0
0 0 0 0 0 0 0 0 0 0 0 0 1 0 0 0 0 0 -0 -0 -0 0 0 -0 0 0 0 0 0 0 0 0 0 0 0 0 0 0 0 -0 0 0 0
0 0 -0 0 0 0 0 0 0 0 0 0 0 0 0 0 0 -0 -0 -0 0 0 0 0 0 0 0 0 0 0 0 -0 0 0 0 0 0 0 0 -0 -0 -0 0
0 0 0 0 0 0 0 0 0 0 0 0 0 0 0 0 0 0 0 0 0 0 0 0 0 0 -0 -0 0 0 0 -0 0 0 0 0 0 0 0 -0 -0 -0 -0
0 0 0 0 0 0 0 0 0 0 0 0 0 0 0 0 0 0 0 0 0 0 0 0 0 0 0 0 0 0 0 0 0 0 0 0 0 0 0 0 -0 -0 -0
0 0 0 0 0 0 0 0 0 0 0 0 0 0 0 0 0 0 0 0 0 0 0 0 0 0 0 0 0 0 0 0 0 0 0 0 0 0 0 0 0 0 0
0 0 0 0 0 0 0 0 0 0 0 0 0 0 0 0 0 0 0 0 0 0 0 0 0 0 0 0 0 0 0 0 0 0 0 0 0 0 0 0 0 0 0
0 0 0 0 0 0 0 0 0 0 0 0 0 0 0 0 0 0 0 0 0 0 0 0 0 0 0 0 0 0 0 0 0 0 0 0 0 0 0 0 0 0 0
0 0 0 0 0 0 0 0 0 0 0 0 0 0 0 0 -0 0 0 0 0 0 0 0 0 0 0 0 0 0 0 0 0 0 0 0 0 0 0 0 0 0 0
-0 -0 -0 0 0 0 0 0 0 0 0 0 0 0 0 0 0 0 0 0 0 0 0 0 0 0 0 0 0 0 0 0 0 0 0 0 0 0 0 0 0 0 0
0 -0 -0 -0 -0 -0 0 0 0 0 0 0 0 0 0 0 0 0 0 0 0 0 0 0 0 0 0 0 0 0 0 0 0 0 0 0 0 0 0 0 0 0 0
0 0 -0 -0 -0 -0 0 0 0 0 0 0 0 0 0 0 0 0 0 0 -0 0 0 0 0 0 0 0 0 0 0 0 0 0 0 0 0 0 0 0 0 0 0
0 0 0 -0 -0 -0 -0 0 0 0 0 0 0 0 0 0 0 0 0 0 0 0 0 0 0 0 0 0 0 0 0 0 0 0 0 0 0 0 0 0 0 0 0
0 0 0 0 -0 -0 0 0 0 0 0 0 0 0 0 0 0 0 0 0 0 0 0 0 -0 -0 0 0 0 0 0 0 0 0 0 0 0 0 0 0 0 0 0
0 0 0 0 -0 0 0 0 0 0 0 0 0 0 0 0 0 0 0 0 0 0 0 0 0 0 0 0 0 0 0 0 0 0 0 0 0 0 0 0 0 0 0
0 0 0 0 0 0 0 0 0 0 0 0 0 0 0 0 0 0 0 0 0 0 0 0 0 0 0 0 0 0 0 0 0 0 0 0 0 0 0 0 0 0 0
0 0 0 0 0 0 0 0 0 0 0 0 0 0 0 0 0 0 0 0 0 0 0 0 0 0 0 0 0 0 0 0 0 0 0 0 0 0 0 0 0 0 0
Wind_Speed_500mb
28 20 17 12 11 12 13 12 11 10 9 8 9 9 9 9 10 11 13 16 18 20 23 25 26 28 30 31 30 24 15 12 14 15 14 15 17 16 12 10 7 7 9
24 20 16 13 11 11 12 10 8 6 5 3 4 4 3 2 3 5 7 8 10 12 15 16 18 20 23 26 26 25 23 17 16 8 8 12 13 12 10 10 10 4 6
22 18 15 11 9 9 8 6 3 2 2 4 6 8 8 7 6 5 3 2 3 4 6 7 10 13 15 19 21 19 16 10 10 7 7 11 16 10 7 6 6 6 3
18 17 13 10 7 4 2 2 3 6 8 10 11 13 14 15 14 12 10 8 6 5 4 5 7 8 9 12 14 16 15 4 5 3 9 16 8 4 2 2 4 2 3
15 12 9 8 6 6 8 10 11 14 15 17 18 19 21 22 22 19 17 15 15 14 13 11 10 8 7 7 9 15 18 10 8 10 7 6 4 6 8 5 7 8 3
23 20 16 8 8 9 10 12 15 19 22 24 26 27 28 28 28 26 24 23 24 22 22 20 17 14 12 9 7 7 15 9 6 9 5 1 4 10 10 7 10 11 9
15 12 7 1 7 12 15 13 15 20 24 28 32 30 34 32 30 31 31 33 33 32 31 28 25 22 18 15 12 6 10 8 12 13 7 4 4 7 11 7 10 11 8
10 6 4 3 2 10 17 17 14 19 23 36 33 34 37 34 31 35 36 38 39 39 38 37 35 31 28 24 18 15 9 10 4 15 10 8 6 10 14 6 7 12 13
7 6 12 13 6 17 16 23 15 21 29 37 36 38 31 32 33 32 34 36 38 35 42 46 46 43 37 35 26 22 14 15 10 14 17 11 7 7 11 5 6 10 11
4 9 11 15 14 15 11 19 15 21 32 33 31 32 34 28 25 27 30 35 47 39 49 44 46 47 46 42 34 28 17 22 16 12 23 14 6 6 3 10 7 5 13
18 15 14 12 11 8 2 11 15 20 27 29 34 32 30 30 25 26 40 44 41 46 45 50 51 48 47 45 39 33 27 29 19 14 23 22 12 10 15 13 15 11 9
7 21 30 29 24 12 16 19 15 20 23 25 24 24 30 30 32 35 41 46 41 45 50 47 40 44 42 49 43 35 34 39 26 16 20 26 19 22 21 19 18 18 16
23 26 33 30 16 21 24 23 18 19 28 29 35 30 35 30 24 36 42 43 41 35 42 50 39 21 40 35 33 38 42 43 32 26 17 32 20 16 14 21 24 22 20
26 27 18 11 17 18 17 18 20 24 26 29 11 38 20 20 22 29 34 35 30 23 21 22 25 28 36 32 42 35 44 38 41 35 27 37 30 17 5 15 20 25 24
19 11 15 20 22 17 20 26 30 27 25 25 22 18 16 14 21 26 33 36 37 28 15 13 18 31 21 27 35 28 36 33 38 38 28 36 32 24 20 15 16 19 25
7 8 18 25 23 18 26 24 30 32 24 21 20 24 26 29 30 37 38 35 32 28 20 14 8 21 27 23 26 37 47 49 45 46 44 55 42 27 23 25 30 22 23
22 27 33 30 23 21 23 23 19 22 20 22 20 25 30 35 38 45 43 36 26 26 16 12 14 11 11 26 34 34 37 55 53 37 37 47 55 61 64 55 55 30 25
28 41 40 34 26 24 23 20 21 25 24 25 27 32 37 39 42 38 47 39 32 25 23 19 15 13 9 8 13 18 26 37 43 36 35 44 37 50 49 40 40 30 33
35 42 48 48 45 43 21 19 25 23 27 34 36 36 38 46 48 49 51 50 39 26 20 18 18 16 17 14 13 14 17 22 21 23 19 19 20 20 29 27 27 32 34
34 45 45 53 56 64 35 12 17 27 30 23 29 24 31 37 38 42 43 36 34 30 27 27 28 22 23 26 25 20 9 13 20 20 17 16 17 20 22 21 26 27 22
32 37 42 52 62 64 47 28 25 34 27 26 38 33 29 30 42 46 43 37 32 30 29 30 29 26 23 22 21 25 23 9 2 1 7 18 26 24 23 22 24 23 26
27 32 42 48 60 59 47 34 27 30 29 30 27 25 31 38 43 42 41 38 36 33 30 28 29 28 23 24 22 12 10 4 7 5 7 3 3 16 20 21 21 24 25
23 31 35 44 57 54 53 41 27 28 31 29 31 29 32 36 39 39 38 38 36 34 31 26 25 25 23 18 15 10 6 6 24 9 5 9 13 15 15 19 21 23 25
25 22 29 39 51 51 55 45 38 39 42 39 32 32 34 35 40 43 42 42 40 36 36 25 20 21 20 19 10 6 8 14 7 12 9 12 18 25 26 26 23 28 28
15 17 24 37 49 47 54 42 36 37 38 35 34 35 37 39 42 47 49 43 40 38 32 26 21 20 19 19 16 14 14 14 14 19 22 15 17 17 26 27 25 26 30
9 15 25 36 45 44 51 39 35 39 40 41 42 41 42 44 49 50 53 40 35 35 33 27 23 20 20 18 15 15 17 17 18 20 16 18 19 13 19 23 26 29 30
Wind_Direction_500mb
151 125 121 123 115 113 116 115 114 114 114 116 124 125 119 107 100 94 89 86 84 81 81 81 77 69 62 56 51 55 72 103 118 124 113 109 103 106 95 60 70 95 80
123 120 126 129 123 130 137 138 140 146 154 164 179 185 177 149 118 116 104 91 85 81 82 81 75 67 63 59 56 59 60 81 91 95 134 136 118 102 88 63 43 77 128
119 117 122 123 120 124 135 151 174 205 253 255 251 246 248 246 241 231 211 172 109 81 72 69 66 61 60 61 57 62 45 70 107 103 141 167 139 99 71 36 46 46 92
110 111 119 125 123 123 146 234 284 300 302 289 278 269 261 258 255 251 248 252 267 280 303 332 350 15 34 50 56 38 29 0 334 153 107 124 142 131 46 10 307 78 94
112 99 88 69 47 14 349 331 326 317 310 299 288 275 268 264 260 258 257 254 255 262 269 273 284 307 326 3 32 41 24 39 90 143 100 93 41 360 353 274 232 220 168
113 73 49 33 15 358 332 323 330 319 314 309 295 287 283 278 275 271 265 262 259 258 261 264 267 277 292 307 336 39 12 30 135 117 117 117 315 342 349 297 228 208 203
127 107 97 186 355 354 338 314 325 322 320 311 303 299 293 285 281 275 269 266 263 260 260 261 267 271 279 286 296 301 354 358 228 201 202 236 277 354 332 285 222 220 218
156 131 55 35 316 304 314 320 315 324 326 325 312 305 291 284 278 279 277 274 273 273 273 269 266 266 269 270 275 283 308 303 285 192 209 208 258 324 327 281 232 221 220
122 35 339 323 295 305 324 310 313 328 334 337 331 325 306 290 284 284 287 287 284 282 280 275 269 263 261 262 264 266 273 272 247 238 217 215 254 332 359 347 247 232 226
61 30 341 319 340 320 305 304 311 338 352 357 348 342 325 309 293 295 287 298 287 280 279 273 276 272 267 259 256 255 257 257 261 248 217 231 229 320 327 30 16 265 236
78 49 20 1 318 316 354 336 324 345 352 349 351 340 333 307 290 285 292 300 282 278 292 279 278 272 275 267 256 247 245 254 249 261 217 226 235 269 288 325 343 332 274
46 32 24 28 15 13 27 354 341 333 327 334 337 333 322 312 300 291 297 295 297 275 284 291 260 263 264 273 260 248 245 255 252 251 227 236 226 267 278 307 325 327 312
43 43 26 21 27 31 23 354 339 319 305 313 325 334 325 327 304 298 303 309 302 293 286 283 273 242 262 268 255 247 242 251 244 246 230 237 224 269 290 317 321 326 324
56 41 37 15 11 20 13 355 347 339 347 338 318 311 315 312 307 326 329 331 330 331 331 295 252 217 241 261 257 255 241 237 241 237 241 216 209 213 265 327 315 309 316
74 36 3 346 349 352 354 23 22 14 351 346 7 2 359 0 358 351 345 338 335 334 347 357 256 255 249 256 249 233 222 240 246 233 210 209 224 233 240 248 269 295 295
83 15 339 337 345 338 21 33 34 38 42 46 40 34 2 6 354 342 342 341 339 336 340 331 327 242 257 248 240 235 244 230 252 251 245 245 241 241 248 259 279 270 266
31 6 353 344 344 340 6 31 33 57 57 54 43 30 15 360 347 342 335 331 333 322 338 350 324 305 256 243 252 250 247 244 249 252 262 252 256 259 251 258 272 262 253
20 16 15 7 4 360 4 48 85 64 56 40 24 15 11 1 358 360 10 354 333 325 305 325 344 339 321 285 271 263 248 247 254 267 263 259 262 255 253 248 249 256 265
20 20 21 27 35 30 26 56 82 71 44 39 40 33 32 25 28 20 7 8 9 359 357 338 319 320 304 293 289 273 263 255 251 239 260 252 250 241 242 243 264 272 271
25 19 24 25 23 17 31 70 71 62 62 55 50 55 42 27 18 6 7 8 6 14 12 4 350 331 322 300 292 272 286 277 257 265 262 251 249 249 230 238 240 257 262
30 26 27 21 22 18 33 66 70 63 54 53 56 64 40 22 16 11 21 21 21 10 5 4 3 8 4 342 300 279 259 250 314 248 267 271 249 237 209 233 251 261 277
36 33 22 21 24 23 36 44 51 60 56 52 44 36 23 14 11 15 17 15 12 10 10 8 358 357 13 14 6 12 2 217 209 200 168 158 243 238 249 270 283 285 285
41 25 18 23 23 25 26 28 48 52 49 45 37 30 21 15 15 14 9 7 6 1 356 354 352 349 355 14 19 21 341 325 321 190 180 229 235 229 245 272 282 276 286
23 25 15 21 22 26 24 32 39 46 48 44 43 38 30 23 17 16 11 4 3 9 8 354 346 352 346 342 350 343 301 283 298 301 242 264 266 263 262 266 271 271 282
29 15 17 21 24 28 23 36 47 52 43 38 37 38 35 23 16 10 10 6 6 11 13 21 14 8 352 338 329 311 288 286 277 261 283 282 253 271 266 272 279 274 284
68 28 18 20 28 29 24 35 44 39 36 39 35 30 24 20 12 11 5 9 10 15 19 19 20 19 13 356 333 311 299 277 262 263 272 279 288 281 271 272 274 281 287
Wind_Speed_850mb
28 20 17 12 11 12 13 12 11 10 9 8 9 9 9 9 10 11 13 16 18 20 23 25 26 28 30 31 30 24 15 12 14 15 14 15 17 16 12 10 7 7 9
24 20 16 13 11 11 12 10 8 6 5 3 4 4 3 2 3 5 7 8 10 12 15 16 18 20 23 26 26 25 23 17 16 8 8 12 13 12 10 10 10 4 6
22 18 15 11 9 9 8 6 3 2 2 4 6 8 8 7 6 5 3 2 3 4 6 7 10 13 15 19 21 19 16 10 10 7 7 11 16 10 7 6 6 6 3
18 17 13 10 7 4 2 2 3 6 8 10 11 13 14 15 14 12 10 8 6 5 4 5 7 8 9 12 14 16 15 4 5 3 9 16 8 4 2 2 4 2 3
15 12 9 8 6 6 8 10 11 14 15 17 18 19 21 22 22 19 17 15 15 14 13 11 10 8 7 7 9 15 18 10 8 10 7 6 4 6 8 5 7 8 3
23 20 16 8 8 9 10 12 15 19 22 24 26 27 28 28 28 26 24 23 24 22 22 20 17 14 12 9 7 7 15 9 6 9 5 1 4 10 10 7 10 11 9
15 12 7 1 7 12 15 13 15 20 24 28 32 30 34 32 30 31 31 33 33 32 31 28 25 22 18 15 12 6 10 8 12 13 7 4 4 7 11 7 10 11 8
10 6 4 3 2 10 17 17 14 19 23 36 33 34 37 34 31 35 36 38 39 39 38 37 35 31 28 24 18 15 9 10 4 15 10 8 6 10 14 6 7 12 13
7 6 12 13 6 17 16 23 15 21 29 37 36 38 31 32 33 32 34 36 38 35 42 46 46 43 37 35 26 22 14 15 10 14 17 11 7 7 11 5 6 10 11
4 9 11 15 14 15 11 19 15 21 32 33 31 32 34 28 25 27 30 35 47 39 49 44 46 47 46 42 34 28 17 22 16 12 23 14 6 6 3 10 7 5 13
18 15 14 12 11 8 2 11 15 20 27 29 34 32 30 30 25 26 40 44 41 46 45 50 51 48 47 45 39 33 27 29 19 14 23 22 12 10 15 13 15 11 9
7 21 30 29 24 12 16 19 15 20 23 25 24 24 30 30 32 35 41 46 41 45 50 47 40 44 42 49 43 35 34 39 26 16 20 26 19 22 21 19 18 18 16
23 26 33 30 16 21 24 23 18 19 28 29 35 30 35 30 24 36 42 43 41 35 42 50 39 21 40 35 33 38 42 43 32 26 17 32 20 16 14 21 24 22 20
26 27 18 11 17 18 17 18 20 24 26 29 11 38 20 20 22 29 34 35 30 23 21 22 25 28 36 32 42 35 44 38 41 35 27 37 30 17 5 15 20 25 24
19 11 15 20 22 17 20 26 30 27 25 25 22 18 16 14 21 26 33 36 37 28 15 13 18 31 21 27 35 28 36 33 38 38 28 36 32 24 20 15 16 19 25
7 8 18 25 23 18 26 24 30 32 24 21 20 24 26 29 30 37 38 35 32 28 20 14 8 21 27 23 26 37 47 49 45 46 44 55 42 27 23 25 30 22 23
22 27 33 30 23 21 23 23 19 22 20 22 20 25 30 35 38 45 43 36 26 26 16 12 14 11 11 26 34 34 37 55 53 37 37 47 55 61 64 55 55 30 25
28 41 40 34 26 24 23 20 21 25 24 25 27 32 37 39 42 38 47 39 32 25 23 19 15 13 9 8 13 18 26 37 43 36 35 44 37 50 49 40 40 30 33
35 42 48 48 45 43 21 19 25 23 27 34 36 36 38 46 48 49 51 50 39 26 20 18 18 16 17 14 13 14 17 22 21 23 19 19 20 20 29 27 27 32 34
34 45 45 53 56 64 35 12 17 27 30 23 29 24 31 37 38 42 43 36 34 30 27 27 28 22 23 26 25 20 9 13 20 20 17 16 17 20 22 21 26 27 22
32 37 42 52 62 64 47 28 25 34 27 26 38 33 29 30 42 46 43 37 32 30 29 30 29 26 23 22 21 25 23 9 2 1 7 18 26 24 23 22 24 23 26
27 32 42 48 60 59 47 34 27 30 29 30 27 25 31 38 43 42 41 38 36 33 30 28 29 28 23 24 22 12 10 4 7 5 7 3 3 16 20 21 21 24 25
23 31 35 44 57 54 53 41 27 28 31 29 31 29 32 36 39 39 38 38 36 34 31 26 25 25 23 18 15 10 6 6 24 9 5 9 13 15 15 19 21 23 25
25 22 29 39 51 51 55 45 38 39 42 39 32 32 34 35 40 43 42 42 40 36 36 25 20 21 20 19 10 6 8 14 7 12 9 12 18 25 26 26 23 28 28
15 17 24 37 49 47 54 42 36 37 38 35 34 35 37 39 42 47 49 43 40 38 32 26 21 20 19 19 16 14 14 14 14 19 22 15 17 17 26 27 25 26 30
9 15 25 36 45 44 51 39 35 39 40 41 42 41 42 44 49 50 53 40 35 35 33 27 23 20 20 18 15 15 17 17 18 20 16 18 19 13 19 23 26 29 30
Wind_Direction_850mb
151 125 121 123 115 113 116 115 114 114 114 116 124 125 119 107 100 94 89 86 84 81 81 81 77 69 62 56 51 55 72 103 118 124 113 109 103 106 95 60 70 95 80
123 120 126 129 123 130 137 138 140 146 154 164 179 185 177 149 118 116 104 91 85 81 82 81 75 67 63 59 56 59 60 81 91 95 134 136 118 102 88 63 43 77 128
119 117 122 123 120 124 135 151 174 205 253 255 251 246 248 246 241 231 211 172 109 81 72 69 66 61 60 61 57 62 45 70 107 103 141 167 139 99 71 36 46 46 92
110 111 119 125 123 123 146 234 284 300 302 289 278 269 261 258 255 251 248 252 267 280 303 332 350 15 34 50 56 38 29 0 334 153 107 124 142 131 46 10 307 78 94
112 99 88 69 47 14 349 331 326 317 310 299 288 275 268 264 260 258 257 254 255 262 269 273 284 307 326 3 32 41 24 39 90 143 100 93 41 360 353 274 232 220 168
113 73 49 33 15 358 332 323 330 319 314 309 295 287 283 278 275 271 265 262 259 258 261 264 267 277 292 307 336 39 12 30 135 117 117 117 315 342 349 297 228 208 203
127 107 97 186 355 354 338 314 325 322 320 311 303 299 293 285 281 275 269 266 263 260 260 261 267 271 279 286 296 301 354 358 228 201 202 236 277 354 332 285 222 220 218
156 131 55 35 316 304 314 320 315 324 326 325 312 305 291 284 278 279 277 274 273 273 273 269 266 266 269 270 275 283 308 303 285 192 209 208 258 324 327 281 232 221 220
122 35 339 323 295 305 324 310 313 328 334 337 331 325 306 290 284 284 287 287 284 282 280 275 269 263 261 262 264 266 273 272 247 238 217 215 254 332 359 347 247 232 226
61 30 341 319 340 320 305 304 311 338 352 357 348 342 325 309 293 295 287 298 287 280 279 273 276 272 267 259 256 255 257 257 261 248 217 231 229 320 327 30 16 265 236
78 49 20 1 318 316 354 336 324 345 352 349 351 340 333 307 290 285 292 300 282 278 292 279 278 272 275 267 256 247 245 254 249 261 217 226 235 269 288 325 343 332 274
46 32 24 28 15 13 27 354 341 333 327 334 337 333 322 312 300 291 297 295 297 275 284 291 260 263 264 273 260 248 245 255 252 251 227 236 226 267 278 307 325 327 312
43 43 26 21 27 31 23 354 339 319 305 313 325 334 325 327 304 298 303 309 302 293 286 283 273 242 262 268 255 247 242 251 244 246 230 237 224 269 290 317 321 326 324
56 41 37 15 11 20 13 355 347 339 347 338 318 311 315 312 307 326 329 331 330 331 331 295 252 217 241 261 257 255 241 237 241 237 241 216 209 213 265 327 315 309 316
74 36 3 346 349 352 354 23 22 14 351 346 7 2 359 0 358 351 345 338 335 334 347 357 256 255 249 256 249 233 222 240 246 233 210 209 224 233 240 248 269 295 295
83 15 339 337 345 338 21 33 34 38 42 46 40 34 2 6 354 342 342 341 339 336 340 331 327 242 257 248 240 235 244 230 252 251 245 245 241 241 248 259 279 270 266
31 6 353 344 344 340 6 31 33 57 57 54 43 30 15 360 347 342 335 331 333 322 338 350 324 305 256 243 252 250 247 244 249 252 262 252 256 259 251 258 272 262 253
20 16 15 7 4 360 4 48 85 64 56 40 24 15 11 1 358 360 10 354 333 325 305 325 344 339 321 285 271 263 248 247 254 267 263 259 262 255 253 248 249 256 265
20 20 21 27 35 30 26 56 82 71 44 39 40 33 32 25 28 20 7 8 9 359 357 338 319 320 304 293 289 273 263 255 251 239 260 252 250 241 242 243 264 272 271
25 19 24 25 23 17 31 70 71 62 62 55 50 55 42 27 18 6 7 8 6 14 12 4 350 331 322 300 292 272 286 277 257 265 262 251 249 249 230 238 240 257 262
30 26 27 21 22 18 33 66 70 63 54 53 56 64 40 22 16 11 21 21 21 10 5 4 3 8 4 342 300 279 259 250 314 248 267 271 249 237 209 233 251 261 277
36 33 22 21 24 23 36 44 51 60 56 52 44 36 23 14 11 15 17 15 12 10 10 8 358 357 13 14 6 12 2 217 209 200 168 158 243 238 249 270 283 285 285
41 25 18 23 23 25 26 28 48 52 49 45 37 30 21 15 15 14 9 7 6 1 356 354 352 349 355 14 19 21 341 325 321 190 180 229 235 229 245 272 282 276 286
23 25 15 21 22 26 24 32 39 46 48 44 43 38 30 23 17 16 11 4 3 9 8 354 346 352 346 342 350 343 301 283 298 301 242 264 266 263 262 266 271 271 282
29 15 17 21 24 28 23 36 47 52 43 38 37 38 35 23 16 10 10 6 6 11 13 21 14 8 352 338 329 311 288 286 277 261 283 282 253 271 266 272 279 274 284
68 28 18 20 28 29 24 35 44 39 36 39 35 30 24 20 12 11 5 9 10 15 19 19 20 19 13 356 333 311 299 277 262 263 272 279 288 281 271 272 274 281 287